Location: Hopewell Observatory
(38.8698°N, 77.6988°W)
Time: 16:29:36
(UTC-04:00)

Daily predictions for brighter satellites

Satellite Brightness Start Highest point End
(mag) Time Altitude Azimuth Time Altitude Azimuth Time Altitude Azimuth
Cosmos 1833 Rocket 3.0 19:50:43 10° N 19:56:08 47° ENE 20:01:32 10° SE
GP-B 4.3 19:54:24 10° SE 19:57:51 23° ENE 20:01:18 10° NNE
Cosmos 2344 4.4 19:52:39 10° SW 20:00:10 58° NW 20:08:40 10° NNE
ATLAS 5 CENTAUR R/B 1.7 19:58:13 10° SSW 20:02:50 72° ESE 20:07:50 10° NE
CZ-2D R/B 4.3 20:01:26 10° SE 20:04:42 27° ENE 20:08:02 10° NNE
Cosmos 1805 3.2 20:02:44 10° S 20:06:38 90° E 20:10:34 10° N
Lacrosse 5 rocket 1.8 20:03:12 10° NNW 20:06:58 40° NE 20:10:29 10° ESE
ALOS 2.2 20:02:41 10° SSE 20:07:19 73° ENE 20:12:00 10° N
Cosmos 372 Rocket 3.9 20:02:31 10° S 20:07:35 70° ESE 20:12:43 10° NNE
Cosmos 158 Rocket 4.2 20:02:57 10° N 20:08:03 54° ENE 20:13:12 10° SE
Cosmos 2278 Rocket 3.8 20:03:52 10° SW 20:09:09 40° WNW 20:14:30 10° N
Resurs 01 Rocket 1.9 20:06:36 10° SE 20:10:50 48° ENE 20:15:06 10° N
Cosmos 1733 3.8 20:11:03 10° SSE 20:14:34 34° E 20:18:07 10° NNE
CZ-4C R/B 3.5 20:11:42 10° SE 20:14:34 15° ESE 20:17:35 10° ENE
Cosmos 1605 Rocket 4.3 20:09:28 10° S 20:15:45 79° W 20:22:10 10° N
USA 186 2.8 20:16:04 14° E 20:16:19 14° ENE 20:17:38 10° NE
Helios 1B rocket 3.4 20:16:40 10° NE 20:20:08 26° E 20:23:35 10° SSE
Meteor 1-21 Rocket 4.3 20:14:36 10° N 20:20:29 72° E 20:26:23 10° SSE
Cosmos 1269 Rocket 4.0 20:15:49 10° NNW 20:21:07 86° ENE 20:26:25 10° SSE
COSMOS 2487 2.4 20:17:40 10° NNW 20:21:14 89° ENE 20:24:48 10° SSE
Cosmos 2100 Rocket 4.2 20:15:38 10° SSE 20:21:40 49° E 20:27:46 10° NNE
Cosmos 1818 4.4 20:21:17 10° NW 20:26:33 51° WSW 20:31:45 10° S
Cosmos 1470 2.9 20:22:54 10° S 20:26:47 54° E 20:30:39 10° NNE
PSLV R/B 3.8 20:26:35 10° SW 20:29:28 34° SSE 20:31:01 21° ESE
SAR-Lupe-4 4.3 20:27:03 14° SE 20:29:36 32° ENE 20:32:51 10° N
Cosmos 2297 4.4 20:24:06 10° SW 20:29:44 59° WNW 20:35:25 10° NNE
Cosmos 1408 Rocket 3.5 20:29:01 10° N 20:33:30 76° E 20:37:57 10° SSE
H-2A R/B 2.8 20:31:28 10° S 20:35:22 83° WSW 20:39:21 10° NNW
TIMED 4.5 20:31:46 10° S 20:36:03 59° ESE 20:40:22 10° NNE
Spot 2 Rocket 3.5 20:33:43 10° SSE 20:38:50 89° ENE 20:43:58 10° NNW
OAO 2 Rocket 4.0 20:34:11 10° SW 20:38:57 39° SSE 20:41:53 21° ESE
Cosmos 2082 Rocket 2.6 20:35:08 10° NNW 20:40:46 67° WSW 20:46:21 10° S
Resurs 1-3 3.6 20:37:01 10° SSE 20:41:23 89° E 20:45:48 10° NNW
GPS 2-05 Rocket1 3.3 20:39:47 10° W 20:43:12 47° S 20:44:44 28° SE
Cosmos 1076 Rocket 4.3 20:40:13 10° NNW 20:44:21 52° W 20:48:28 10° S
Cosmos 1184 Rocket 3.3 20:44:42 10° N 20:47:54 39° ENE 20:48:38 34° ESE
Cosmos 1802 Rocket 3.9 20:41:56 10° S 20:47:56 62° E 20:54:02 10° NNE
SAR-Lupe-1 4.3 20:46:28 25° SE 20:48:10 47° ENE 20:51:38 10° N
Helios 1A 3.0 20:45:49 16° SSE 20:48:57 58° ENE 20:53:05 10° N
Cosmos 1842 Rocket 3.8 20:45:01 10° SSE 20:49:12 44° E 20:53:23 10° NNE
Cosmos 1340 Rocket 2.7 20:45:36 10° N 20:49:37 78° E 20:53:08 13° SSE
CZ-4B DEB 3.3 20:49:48 35° E 20:49:59 35° ENE 20:52:52 10° N
Cosmos 389 Rocket 3.2 20:52:51 33° E 20:52:51 33° E 20:55:44 10° NNE
Meteor 1-16 Rocket 4.4 20:49:45 10° S 20:55:26 55° E 21:01:13 10° NNE
SeaSat 1 2.8 20:50:41 10° SSE 20:55:34 66° WSW 21:00:30 10° NNW
Envisat 3.2 20:54:15 23° SE 20:57:10 50° ENE 21:02:04 10° N
Cosmos 1356 Rocket 3.6 20:55:54 10° N 20:59:50 46° ENE 21:00:45 38° ESE
Cosmos 1271 Rocket 3.7 20:56:07 10° SSW 21:00:02 52° W 21:03:59 10° N
Cosmos 1674 3.8 20:56:43 10° NNW 21:00:22 45° W 21:04:00 10° SSW
Cosmos 1459 Rocket 4.0 20:55:26 10° S 21:01:41 86° W 21:07:53 10° N
ISS -1.4 21:00:39 10° WNW 21:03:11 21° NNW 21:05:44 10° NNE
ERS-1 Rocket 3.8 21:03:10 29° E 21:03:56 30° ENE 21:08:18 10° N
Meteor 2-17 Rocket 4.3 20:58:40 10° S 21:04:46 71° E 21:10:53 10° NNE
Meteor 1-11 4.4 20:59:31 10° N 21:04:56 48° ENE 21:07:16 31° SE
SL-14 R/B 3.3 21:03:24 10° N 21:07:13 54° E 21:07:46 49° ESE
Cosmos 2061 Rocket 4.1 21:02:29 10° S 21:08:53 83° W 21:15:22 10° N
Geosat 3.9 21:05:17 10° NNE 21:10:21 87° ESE 21:15:22 10° SSW
Cosmos 2173 Rocket 4.2 21:06:16 10° SSW 21:12:26 73° W 21:18:44 10° N
Cosmos-2242 4.5 21:09:55 10° SSW 21:13:52 38° WNW 21:17:52 10° N
Cosmos 1626 4.3 21:14:36 10° NNE 21:15:35 15° NE 21:15:35 15° NE
Cosmos 1328 3.7 21:14:54 10° N 21:18:53 89° W 21:19:51 50° S
Cosmos 1864 Rocket 4.5 21:13:07 10° S 21:19:20 63° E 21:25:33 10° NNE
H-2A R/B 4.0 21:28:32 15° NE 21:28:32 15° NE 21:30:25 10° NNE
Cosmos 2369 Rocket 2.1 21:22:25 10° S 21:27:59 66° ESE 21:33:34 10° NNE
Meteor 2-1 Rocket 4.2 21:27:08 34° SSE 21:29:31 62° E 21:35:06 10° NNE
Cosmos 2221 3.8 21:33:23 29° NE 21:33:23 29° NE 21:35:45 10° NNE
SJ-11-01 4.3 21:30:11 43° S 21:31:44 81° WSW 21:36:29 10° NNW
Cosmos 2058 3.2 21:29:48 10° N 21:33:12 54° NNE 21:33:12 54° NNE
SPOT 5 3.9 21:40:46 35° NE 21:40:46 35° NE 21:44:47 10° N
Cosmos 1939 Rocket 3.2 21:40:21 61° SW 21:40:43 64° W 21:44:51 10° NNW
Cosmos 1943 Rocket 4.1 21:48:53 16° NE 21:48:53 16° NE 21:49:57 10° NE
CZ-3B DEB 4.4 21:41:30 10° WNW 21:45:31 15° NNW 21:48:19 10° N
Lacrosse 5 rocket 3.3 21:43:09 10° WNW 21:45:52 19° WSW 21:46:14 18° SW
Resurs 01 Rocket 4.5 21:45:10 10° SW 21:47:33 14° W 21:49:57 10° WNW
NOAA 11 4.5 21:49:56 51° NE 21:49:56 51° NE 21:54:45 10° N
Cosmos 2263 4.4 21:52:40 57° NE 21:52:40 57° NE 21:57:13 10° NNE
USA 215 3.1 21:46:43 10° NE 21:53:14 70° SE 21:59:44 10° SW
Cosmos 1725 Rocket 4.3 21:50:05 10° SSW 21:56:14 66° W 22:02:25 10° N
Cosmos 2151 4.0 21:57:03 10° NNW 22:00:57 43° W 22:00:57 43° W
CZ-4C R/B 2.4 21:56:59 10° SW 22:02:10 67° NW 22:08:03 10° NNE
MetOp-A 4.3 22:07:07 64° N 22:07:07 64° N 22:11:41 10° N
Cosmos 2346 Rocket 4.4 22:02:56 10° N 22:09:02 81° ENE 22:09:02 81° ENE
ARGOS 3.9 22:17:29 46° N 22:17:29 46° N 22:21:16 10° N
USA 267 4.3 22:24:10 32° NE 22:24:53 32° NNE 22:30:32 10° NNW
H-2A R/B 4.0 23:09:11 26° NNW 23:09:11 26° NNW 23:11:27 10° NNW
ATLAS 3B R/B 4.4 23:20:37 25° NNE 23:20:37 25° NNE 23:23:18 10° NNE
Cosmos 1943 Rocket 4.3 23:30:17 22° NNW 23:30:17 22° NNW 23:33:11 10° N
USA 215 4.4 23:30:02 10° NE 23:36:09 37° NW 23:41:49 10° W
